Weather History for KNSI - January, 2013

Change the Weather History Date:

Monday, January 21, 2013

  Actual Average Record
Temperature  
Mean Temperature 75 °F -  
Max Temperature 91 °F - - ()
Min Temperature 59 °F - - ()
Cooling Degree Days 10    
Growing Degree Days 25 (Base 50)    
Moisture  
Dew Point 24 °F    
Average Humidity 18    
Maximum Humidity 35    
Minimum Humidity 8    
Precipitation  
Precipitation 0.00 in - - ()
Sea Level Pressure  
Sea Level Pressure 30.03 in    
Wind  
Wind Speed 7 mph (North)    
Max Wind Speed 13 mph    
Max Gust Speed -    
Visibility 10 miles    
Events      
T = Trace of Precipitation, MM = Missing Value Source: NWS Daily Summary

Daily Weather History Graph

Daily Weather History Graph

Search for Another Location

Airport or City:

Trip Planner

Search our weather history database for the weather conditions in past years. The results will help you decide how hot, cold, wet, or windy it might be!

Date:

Astronomy

Jan. 21, 2013 Rise Set
Actual Time 6:59 AM PST 5:19 PM PST
Civil Twilight 6:32 AM PST 5:46 PM PST
Nautical Twilight 6:02 AM PST 6:16 PM PST
Astronomical Twilight 5:33 AM PST 6:45 PM PST
Moon 1:04 PM PST (1/21) 2:31 AM PST (1/21)
Length of Visible Light 11h 13m
Length of Day
10h 20m
Waxing Gibbous, 76% of the Moon is Illuminated
Jan 21
Waxing Gibbous
Jan 26
Full
Feb 3
Last Quarter
Feb 9
New
Feb 17
First Quarter

Hourly Weather History & Observations

Time (PST) Temp. Dew Point Humidity Pressure Visibility Wind Dir Wind Speed Gust Speed Precip Events Conditions
12:53 AM 73.0 °F 21.9 °F 15% 30.03 in 10.0 mi NW 11.5 mph - N/A   Clear
1:53 AM 63.0 °F 30.0 °F 29% 30.02 in 10.0 mi NNW 10.4 mph - N/A   Clear
2:53 AM 64.0 °F 30.9 °F 29% 30.01 in 10.0 mi NNW 3.5 mph - N/A   Clear
3:53 AM 59.0 °F 30.9 °F 35% 30.01 in 10.0 mi NNE 4.6 mph - N/A   Clear
4:53 AM 59.0 °F 28.0 °F 31% 30.00 in 10.0 mi North 5.8 mph - N/A   Clear
5:53 AM 69.1 °F 34.0 °F 27% 30.00 in 10.0 mi East 5.8 mph - N/A   Clear
6:53 AM 61.0 °F 28.9 °F 30% 30.01 in 10.0 mi ENE 3.5 mph - N/A   Clear
7:53 AM 79.0 °F 23.0 °F 13% 30.03 in 10.0 mi SE 6.9 mph - N/A   Clear
8:53 AM 82.0 °F 37.0 °F 20% 30.06 in 10.0 mi South 5.8 mph - N/A   Clear
9:53 AM 91.0 °F 25.0 °F 9% 30.08 in 10.0 mi SSE 5.8 mph - N/A   Clear
10:53 AM 86.0 °F 37.9 °F 18% 30.09 in 10.0 mi ENE 4.6 mph - N/A   Clear
11:53 AM 75.0 °F 41.0 °F 29% 30.07 in 10.0 mi North 3.5 mph - N/A   Clear
12:53 PM 80.1 °F 21.9 °F 12% 30.04 in 10.0 mi Calm Calm - N/A   Clear
1:53 PM 75.9 °F 26.1 °F 16% 30.04 in 10.0 mi NE 4.6 mph - N/A   Clear
2:53 PM 72.0 °F 19.0 °F 13% 30.02 in 10.0 mi NNE 8.1 mph - N/A   Clear
3:53 PM 75.9 °F 15.1 °F 10% 29.99 in 10.0 mi NE 5.8 mph - N/A   Clear
4:53 PM 81.0 °F 19.9 °F 10% 30.00 in 10.0 mi Calm Calm - N/A   Clear
5:53 PM 87.1 °F 18.0 °F 8% 30.01 in 10.0 mi SSW 10.4 mph - N/A   Clear
6:53 PM 78.1 °F 12.0 °F 8% 30.02 in 10.0 mi SW 10.4 mph - N/A   Clear
7:53 PM 78.1 °F 12.0 °F 8% 30.04 in 10.0 mi SW 9.2 mph - N/A   Clear
8:53 PM 77.0 °F 10.0 °F 8% 30.05 in 10.0 mi West 3.5 mph - N/A   Clear
9:53 PM 79.0 °F 10.9 °F 8% 30.05 in 10.0 mi West 5.8 mph - N/A   Clear
10:53 PM 66.0 °F 25.0 °F 21% 30.05 in 10.0 mi West 11.5 mph - N/A   Clear
11:53 PM 70.0 °F 19.9 °F 15% 30.05 in 10.0 mi West 12.7 mph - N/A   Clear